TimeEDT,TemperatureF,Dew PointF,Humidity,Sea Level PressureIn,VisibilityMPH,Wind Direction,Wind SpeedMPH,Gust SpeedMPH,PrecipitationIn,Events,Conditions,WindDirDegrees,DateUTC
12:02 AM,55.4,53.6,94,30.10,6.0,SSW,3.5,-,N/A,,Overcast,210,2012-10-10 04:02:00
12:30 AM,55.4,53.6,94,30.09,3.0,SW,4.6,-,N/A,,Overcast,230,2012-10-10 04:30:00
12:44 AM,55.4,55.4,100,30.09,3.0,Calm,Calm,-,N/A,,Overcast,0,2012-10-10 04:44:00
12:53 AM,55.9,54.0,93,30.08,4.0,WSW,4.6,-,N/A,,Overcast,250,2012-10-10 04:53:00
1:10 AM,55.4,53.6,94,30.09,4.0,WSW,4.6,-,N/A,,Overcast,250,2012-10-10 05:10:00
1:53 AM,55.9,54.0,93,30.07,6.0,WSW,3.5,-,N/A,,Overcast,240,2012-10-10 05:53:00
2:07 AM,55.4,53.6,94,30.09,5.0,WSW,4.6,-,N/A,,Overcast,240,2012-10-10 06:07:00
2:53 AM,55.0,54.0,96,30.06,8.0,West,5.8,-,N/A,,Overcast,260,2012-10-10 06:53:00
3:12 AM,55.4,53.6,94,30.07,9.0,West,5.8,-,N/A,,Overcast,260,2012-10-10 07:12:00
3:53 AM,55.0,54.0,96,30.05,9.0,West,4.6,-,N/A,,Overcast,270,2012-10-10 07:53:00
4:07 AM,55.4,53.6,94,30.06,9.0,West,5.8,-,N/A,,Overcast,260,2012-10-10 08:07:00
4:53 AM,55.9,54.0,93,30.04,8.0,WSW,4.6,-,N/A,,Overcast,250,2012-10-10 08:53:00
5:53 AM,55.9,54.0,93,30.05,8.0,WSW,5.8,-,N/A,,Overcast,240,2012-10-10 09:53:00
6:50 AM,53.6,51.8,94,30.07,9.0,WSW,3.5,-,N/A,,Scattered Clouds,240,2012-10-10 10:50:00
6:53 AM,53.1,52.0,96,30.06,8.0,SW,3.5,-,N/A,,Partly Cloudy,230,2012-10-10 10:53:00
7:17 AM,51.8,51.8,100,30.07,1.8,SW,3.5,-,N/A,,Clear,230,2012-10-10 11:17:00
7:27 AM,51.8,51.8,100,30.08,3.0,WSW,4.6,-,N/A,,Clear,240,2012-10-10 11:27:00
7:53 AM,53.1,52.0,96,30.07,8.0,WSW,5.8,-,N/A,,Clear,250,2012-10-10 11:53:00
8:53 AM,55.0,53.1,93,30.09,10.0,WSW,5.8,-,N/A,,Clear,240,2012-10-10 12:53:00
9:53 AM,59.0,50.0,72,30.09,10.0,West,5.8,-,N/A,,Clear,260,2012-10-10 13:53:00
10:53 AM,63.0,50.0,63,30.08,10.0,West,9.2,-,N/A,,Clear,270,2012-10-10 14:53:00
11:53 AM,64.9,50.0,58,30.06,10.0,WSW,10.4,-,N/A,,Partly Cloudy,250,2012-10-10 15:53:00
12:53 PM,66.9,50.0,54,30.04,10.0,SW,8.1,-,N/A,,Clear,220,2012-10-10 16:53:00
1:53 PM,70.0,50.0,49,30.01,10.0,NW,6.9,-,N/A,,Clear,320,2012-10-10 17:53:00
2:53 PM,71.1,50.0,47,30.00,10.0,West,9.2,-,N/A,,Clear,280,2012-10-10 18:53:00
3:53 PM,72.0,50.0,46,29.98,10.0,West,6.9,-,N/A,,Clear,280,2012-10-10 19:53:00
4:53 PM,72.0,50.0,46,29.99,10.0,WSW,12.7,-,N/A,,Clear,250,2012-10-10 20:53:00
5:53 PM,71.1,51.1,49,29.99,10.0,West,12.7,-,N/A,,Partly Cloudy,270,2012-10-10 21:53:00
6:53 PM,66.0,53.1,63,30.01,10.0,West,5.8,-,N/A,,Clear,260,2012-10-10 22:53:00
7:53 PM,64.0,53.1,67,30.02,10.0,WSW,4.6,-,N/A,,Clear,240,2012-10-10 23:53:00
8:53 PM,60.1,54.0,80,30.05,10.0,WSW,4.6,-,N/A,,Clear,250,2012-10-11 00:53:00
9:53 PM,60.1,54.0,80,30.07,10.0,West,6.9,-,N/A,,Clear,270,2012-10-11 01:53:00
10:53 PM,60.1,53.1,78,30.09,10.0,WNW,5.8,-,N/A,,Clear,290,2012-10-11 02:53:00
11:53 PM,60.1,50.0,69,30.10,10.0,NW,5.8,-,N/A,,Clear,320,2012-10-11 03:53:00